Welcome to mirrors.dotsrc.org

All our mirrors of open source software are available via http, https, ftp and an onion service. More information about our mirrors including statistics and contact information is available on our mirror info pages.

For information about dotsrc.org and our other services please go to our website.

Index of /mirrors/cpan/modules/by-authors/id/R/RH/RHESA/

File Name  ↓ File Size  ↓ Date  ↓ 
Parent directory/--
CGI-Application-Plugin-CompressGzip-1.02.meta383 B2010-01-07 13:24:12
CGI-Application-Plugin-CompressGzip-1.02.readme296 B2010-01-07 13:24:12
CGI-Application-Plugin-CompressGzip-1.02.tar.gz8.7 KiB2010-01-07 13:25:31
CGI-Application-Plugin-DevPopup-1.08.meta611 B2013-01-18 12:30:04
CGI-Application-Plugin-DevPopup-1.08.readme324 B2013-01-18 12:30:04
CGI-Application-Plugin-DevPopup-1.08.tar.gz16.2 KiB2013-01-18 12:31:00
CGI-Application-Plugin-HtmlTidy-1.05.meta566 B2011-05-15 22:31:47
CGI-Application-Plugin-HtmlTidy-1.05.readme329 B2011-05-15 22:31:47
CGI-Application-Plugin-HtmlTidy-1.05.tar.gz14.1 KiB2011-05-15 22:32:30
CGI-Application-Plugin-RunmodeDeclare-0.10.meta581 B2012-02-10 00:53:16
CGI-Application-Plugin-RunmodeDeclare-0.10.readme330 B2012-02-10 00:53:16
CGI-Application-Plugin-RunmodeDeclare-0.10.tar.gz13.9 KiB2012-02-10 00:53:54
CGI-Application-Plugin-RunmodeParseKeyword-0.12.meta10.5 KiB2022-05-03 10:38:02
CGI-Application-Plugin-RunmodeParseKeyword-0.12.readme5.3 KiB2022-05-03 10:38:02
CGI-Application-Plugin-RunmodeParseKeyword-0.12.tar.gz170.0 KiB2022-05-03 10:38:59
CGI-Application-Plugin-RunmodeParseKeyword-0.13.meta10.5 KiB2022-05-03 11:49:56
CGI-Application-Plugin-RunmodeParseKeyword-0.13.readme5.3 KiB2022-05-03 11:49:56
CGI-Application-Plugin-RunmodeParseKeyword-0.13.tar.gz21.5 KiB2022-05-03 11:51:10
CGI-Application-Plugin-RunmodeParseKeyword-0.14.meta10.5 KiB2022-05-03 19:23:51
CGI-Application-Plugin-RunmodeParseKeyword-0.14.readme5.3 KiB2022-05-03 19:23:51
CGI-Application-Plugin-RunmodeParseKeyword-0.14.tar.gz21.9 KiB2022-05-03 19:24:38
CGI-Application-Plugin-RunmodeParseKeyword-0.15.meta10.5 KiB2023-12-29 17:07:58
CGI-Application-Plugin-RunmodeParseKeyword-0.15.readme5.3 KiB2023-12-29 17:07:58
CGI-Application-Plugin-RunmodeParseKeyword-0.15.tar.gz22.3 KiB2023-12-29 17:09:08
CGI-Application-Plugin-RunmodeParseKeyword-0.15_01.tar.gz22.3 KiB2023-12-28 15:07:39
CHECKSUMS17.2 KiB2023-12-30 17:09:08
DBIx-Counter-0.03.meta526 B2006-11-20 20:01:35
DBIx-Counter-0.03.readme2.5 KiB2006-11-20 19:59:47
DBIx-Counter-0.03.tar.gz5.4 KiB2006-11-20 20:07:26
HTML-Template-Pluggable-0.17.meta557 B2007-09-27 00:37:45
HTML-Template-Pluggable-0.17.readme3.8 KiB2007-03-28 02:33:45
HTML-Template-Pluggable-0.17.tar.gz25.4 KiB2007-09-27 00:41:40
HTML-Template-Pluggable-0.19.meta1.3 KiB2022-05-03 08:51:32
HTML-Template-Pluggable-0.19.readme3.8 KiB2022-05-03 08:51:32
HTML-Template-Pluggable-0.19.tar.gz30.3 KiB2022-05-03 08:52:21
HTML-Template-Pluggable-0.20.meta1.3 KiB2022-05-03 09:05:59
HTML-Template-Pluggable-0.20.readme3.8 KiB2022-05-03 09:05:59
HTML-Template-Pluggable-0.20.tar.gz30.4 KiB2022-05-03 09:06:33
HTML-Template-Pluggable-0.21.meta1.3 KiB2022-05-04 07:44:47
HTML-Template-Pluggable-0.21.readme3.8 KiB2022-05-04 07:44:47
HTML-Template-Pluggable-0.21.tar.gz31.0 KiB2022-05-04 07:46:11
HTML-Template-Pluggable-0.22.meta1.3 KiB2022-05-11 09:06:01
HTML-Template-Pluggable-0.22.readme3.8 KiB2022-05-11 09:06:01
HTML-Template-Pluggable-0.22.tar.gz31.0 KiB2022-05-11 09:07:04
HTML-Template-Plugin-Dot-Helpers-0.06.meta624 B2013-01-18 13:31:51
HTML-Template-Plugin-Dot-Helpers-0.06.readme324 B2013-01-18 13:31:51
HTML-Template-Plugin-Dot-Helpers-0.06.tar.gz10.2 KiB2013-01-18 13:32:56
Method-Signatures-Simple-1.07.meta558 B2013-01-20 22:06:25
Method-Signatures-Simple-1.07.readme345 B2013-01-20 22:06:25
Method-Signatures-Simple-1.07.tar.gz13.4 KiB2013-01-20 22:06:37
Method-Signatures-Simple-ParseKeyword-1.11-TRIAL.tar.gz21.3 KiB2022-05-03 08:39:31
Method-Signatures-Simple-ParseKeyword-1.11.meta10.4 KiB2022-05-03 10:15:19
Method-Signatures-Simple-ParseKeyword-1.11.readme6.8 KiB2022-05-03 10:15:19
Method-Signatures-Simple-ParseKeyword-1.11.tar.gz21.3 KiB2022-05-03 10:16:01
Method-Signatures-Simple-ParseKeyword-1.12.meta10.4 KiB2022-05-03 19:16:24
Method-Signatures-Simple-ParseKeyword-1.12.readme6.8 KiB2022-05-03 19:16:24
Method-Signatures-Simple-ParseKeyword-1.12.tar.gz21.7 KiB2022-05-03 19:24:49
Method-Signatures-Simple-ParseKeyword-1.13.meta10.4 KiB2023-08-19 20:16:29
Method-Signatures-Simple-ParseKeyword-1.13.readme6.8 KiB2023-08-19 20:16:29
Method-Signatures-Simple-ParseKeyword-1.13.tar.gz22.3 KiB2023-08-19 20:17:23
Net-Google-CalendarV3-0.14.meta617 B2015-02-23 13:18:05
Net-Google-CalendarV3-0.14.readme388 B2015-02-23 13:18:05
Net-Google-CalendarV3-0.14.tar.gz11.6 KiB2015-02-23 13:18:14
Net-Google-CalendarV3-0.15.meta617 B2015-02-23 13:48:32
Net-Google-CalendarV3-0.15.readme388 B2015-02-23 13:48:32
Net-Google-CalendarV3-0.15.tar.gz11.6 KiB2015-02-23 14:00:09
Net-Google-CalendarV3-0.16.meta637 B2016-07-06 21:37:10
Net-Google-CalendarV3-0.16.readme388 B2016-07-06 21:37:10
Net-Google-CalendarV3-0.16.tar.gz11.5 KiB2016-07-06 21:38:09
Proc-Supervised-Convenience-1.01.meta581 B2011-10-27 09:13:44
Proc-Supervised-Convenience-1.01.readme320 B2011-10-27 09:13:44
Proc-Supervised-Convenience-1.01.tar.gz9.7 KiB2011-10-27 09:13:55